{"data":{"norad_id":69276,"epoch":"2026-09-18T06:17:44.042784Z","epoch_age_seconds":223425,"freshness":"STALE","line1":"1 69276U 26118K   26261.26231531  .00002028  00000+0  29490-3 0  9996","line2":"2 69276  51.9034 349.0972 0000541 129.8640 230.2370 14.79935604 17944","mean_motion":14.79935604,"eccentricity":5.41e-5,"inclination_deg":51.9034,"raan_deg":349.0972,"arg_perigee_deg":129.864,"mean_anomaly_deg":230.237,"bstar":0.0002949,"rev_number":1794,"period_min":97.301530965803,"perigee_km":629.14829435979,"apogee_km":629.90652364885,"semimajor_km":7007.6644090043,"source":"CELESTRAK","updated_at":"2026-09-20T09:00:24.778393Z"}}